Weather History for KJFZ - March, 2014

Change the Weather History Date:

Tuesday, March 25, 2014

  Actual Average (KBLF) Record (KBLF)
Temperature  
Mean Temperature 30 °F 48 °F  
Max Temperature 35 °F 57 °F 81 °F (2007)
Min Temperature 25 °F 39 °F 10 °F (1960)
Degree Days  
Heating Degree Days 35 17  
Month to date heating degree days 520  
Since 1 July heating degree days 4013  
Cooling Degree Days 0 0  
Month to date cooling degree days 0  
Year to date cooling degree days 0  
Moisture  
Dew Point 22 °F    
Average Humidity 72    
Maximum Humidity 91    
Minimum Humidity 30    
Precipitation  
Precipitation 0.03 in 0.12 in 0.85 in (1978)
Month to date precipitation 2.83  
Year to date precipitation 8.49  
Snow  
Snow 0.00 in - - ()
Month to date snowfall  
Since 1 July snowfall  
Snow Depth -    
Sea Level Pressure  
Sea Level Pressure 29.89 in    
Wind  
Wind Speed 5 mph (NW)    
Max Wind Speed 17 mph    
Max Gust Speed 28 mph    
Visibility 5 miles    
Events Snow    
T = Trace of Precipitation, MM = Missing Value Source: NWS Daily Summary

Daily Weather History Graph

Daily Weather History Graph

Search for Another Location

Airport or City:

Trip Planner

Search our weather history database for the weather conditions in past years. The results will help you decide how hot, cold, wet, or windy it might be!

Date:

Astronomy

Mar. 25, 2014 Rise Set
Actual Time 7:23 AM EDT 7:43 PM EDT
Civil Twilight 6:57 AM EDT 8:09 PM EDT
Nautical Twilight 6:26 AM EDT 8:40 PM EDT
Astronomical Twilight 5:55 AM EDT 9:11 PM EDT
Moon 3:36 AM EDT (3/25) 2:19 PM EDT (3/25)
Length of Visible Light 13h 12m
Length of Day
12h 20m
Waning Crescent, 32% of the Moon is Illuminated
Mar 25
Waning Crescent
Mar 30
New
Apr 7
First Quarter
Apr 15
Full
Apr 22
Last Quarter

Hourly Weather History & Observations

Time (EDT) Temp. Windchill Dew Point Humidity Pressure Visibility Wind Dir Wind Speed Gust Speed Precip Events Conditions
12:15 AM 35.6 °F 31.7 °F 7.7 °F 31% 30.00 in 10.0 mi NNE 4.6 mph - N/A   Clear
12:35 AM 35.6 °F 30.7 °F 7.5 °F 31% 29.99 in 10.0 mi ENE 5.8 mph - N/A   Mostly Cloudy
12:55 AM 35.6 °F 31.7 °F 6.8 °F 30% 29.98 in 10.0 mi NE 4.6 mph - N/A   Mostly Cloudy
1:15 AM 35.2 °F 32.4 °F 7.5 °F 32% 29.98 in 10.0 mi NE 3.5 mph - N/A   Overcast
1:35 AM 35.1 °F 31.0 °F 7.5 °F 32% 29.97 in 10.0 mi NE 4.6 mph - N/A   Overcast
1:55 AM 35.4 °F 31.5 °F 7.3 °F 31% 29.96 in 10.0 mi ESE 4.6 mph - N/A   Overcast
2:15 AM 35.1 °F 29.3 °F 7.9 °F 32% 29.94 in 10.0 mi East 6.9 mph - N/A   Overcast
2:35 AM 35.2 °F 31.2 °F 7.9 °F 32% 29.94 in 10.0 mi ENE 4.6 mph - N/A   Overcast
2:55 AM 32.7 °F 28.3 °F 14.4 °F 47% 29.92 in 10.0 mi NW 4.6 mph - N/A   Overcast
3:15 AM 32.9 °F 28.5 °F 13.3 °F 44% 29.91 in 10.0 mi North 4.6 mph - N/A   Overcast
3:35 AM 34.3 °F 30.2 °F 9.3 °F 35% 29.91 in 10.0 mi North 4.6 mph - N/A   Overcast
3:55 AM 35.1 °F 31.0 °F 7.9 °F 32% 29.89 in 10.0 mi NE 4.6 mph - N/A   Overcast
4:15 AM 34.9 °F - 8.8 °F 34% 29.88 in 10.0 mi Calm Calm - N/A   Overcast
4:35 AM 34.9 °F - 10.2 °F 36% 29.87 in 10.0 mi Calm Calm - N/A   Overcast
4:55 AM 34.3 °F - 11.1 °F 38% 29.87 in 10.0 mi Calm Calm - N/A   Overcast
5:15 AM 34.7 °F 31.8 °F 12.0 °F 39% 29.87 in 10.0 mi WNW 3.5 mph - N/A   Overcast
5:35 AM 32.4 °F 27.9 °F 17.8 °F 55% 29.87 in 3.0 mi NNW 4.6 mph - N/A Snow Light Snow
5:55 AM 32.0 °F 26.4 °F 23.0 °F 69% 29.87 in 10.0 mi NW 5.8 mph - N/A   Overcast
6:15 AM 31.1 °F 27.7 °F 25.5 °F 80% 29.87 in 2.0 mi NNW 3.5 mph - N/A Snow Light Snow
6:35 AM 30.2 °F 26.7 °F 27.5 °F 90% 29.88 in 1.0 mi NW 3.5 mph - N/A Snow Light Snow
6:55 AM 29.1 °F 24.1 °F 26.4 °F 90% 29.88 in 1.5 mi NNW 4.6 mph - N/A Snow Light Snow
7:15 AM 28.9 °F 25.2 °F 26.2 °F 90% 29.88 in 2.0 mi NNW 3.5 mph - N/A Snow Light Snow
7:35 AM 28.6 °F 22.4 °F 26.2 °F 91% 29.88 in 1.8 mi NNW 5.8 mph - 0.01 in Snow Light Snow
7:55 AM 28.4 °F 24.6 °F 26.1 °F 91% 29.88 in 1.8 mi NNW 3.5 mph - 0.01 in Snow Light Snow
8:15 AM 28.8 °F - 25.7 °F 88% 29.88 in 2.0 mi Calm Calm - N/A Snow Light Snow
8:35 AM 28.9 °F - 25.3 °F 86% 29.87 in 1.8 mi Calm Calm - N/A Snow Light Snow
8:55 AM 29.3 °F - 25.2 °F 85% 29.87 in 1.5 mi Calm Calm - N/A Snow Light Snow
9:15 AM 29.7 °F - 25.7 °F 85% 29.86 in 1.2 mi Calm Calm - N/A Snow Light Snow
9:35 AM 30.2 °F - 26.1 °F 85% 29.86 in 2.0 mi Calm Calm - N/A Snow Light Snow
9:55 AM 30.7 °F - 26.2 °F 83% 29.85 in 2.5 mi Calm Calm - N/A Snow Light Snow
10:15 AM 31.3 °F - 26.2 °F 82% 29.85 in 10.0 mi Calm Calm - N/A   Overcast
10:35 AM 31.5 °F - 25.7 °F 79% 29.85 in 10.0 mi Calm Calm - N/A Snow Light Snow
10:55 AM 32.0 °F - 26.8 °F 81% 29.85 in 3.0 mi Calm Calm - N/A Snow Light Snow
11:15 AM 32.0 °F - 27.0 °F 82% 29.86 in 1.0 mi Calm Calm - N/A Snow Light Snow
11:35 AM 32.2 °F 28.9 °F 28.0 °F 85% 29.86 in 2.0 mi West 3.5 mph - N/A Snow Light Snow
11:55 AM 33.1 °F 28.7 °F 28.8 °F 84% 29.85 in 2.5 mi West 4.6 mph - N/A Snow Light Snow
12:15 PM 33.6 °F - 29.3 °F 84% 29.84 in 3.0 mi Calm Calm - N/A Snow Light Snow
12:35 PM 33.8 °F 28.6 °F 28.9 °F 82% 29.84 in 4.0 mi West 5.8 mph - N/A Snow Light Snow
12:55 PM 34.3 °F 29.2 °F 29.1 °F 81% 29.83 in 3.0 mi West 5.8 mph - N/A Snow Light Snow
1:15 PM 33.4 °F 28.1 °F 29.7 °F 86% 29.82 in 3.0 mi NW 5.8 mph - N/A Snow Light Snow
1:35 PM 32.9 °F 25.3 °F 29.3 °F 87% 29.81 in 1.5 mi NW 9.2 mph - N/A Snow Light Snow
2:15 PM 32.2 °F 24.4 °F 29.8 °F 91% 29.81 in 0.8 mi NW 9.2 mph - N/A Snow Light Snow
2:35 PM 34.0 °F 23.8 °F 28.2 °F 79% 29.80 in 10.0 mi NNW 16.1 mph 24.2 mph N/A   Overcast
2:55 PM 34.0 °F 27.2 °F 25.3 °F 71% 29.80 in 10.0 mi NW 8.1 mph 18.4 mph N/A   Overcast
3:15 PM 34.9 °F 27.1 °F 27.5 °F 74% 29.80 in 10.0 mi WNW 10.4 mph 17.3 mph N/A   Overcast
3:35 PM 34.9 °F 26.2 °F 23.7 °F 64% 29.80 in 10.0 mi NNW 12.7 mph 19.6 mph N/A   Overcast
3:55 PM 32.0 °F 22.1 °F 27.1 °F 82% 29.82 in 1.2 mi NW 13.8 mph 24.2 mph N/A Snow Light Snow
4:15 PM 31.5 °F 22.3 °F 27.7 °F 86% 29.83 in 4.0 mi NW 11.5 mph 18.4 mph N/A Snow Light Snow
4:35 PM 32.0 °F 23.6 °F 27.0 °F 82% 29.83 in 5.0 mi WNW 10.4 mph 19.6 mph N/A   Haze
4:55 PM 31.8 °F 22.8 °F 26.1 °F 79% 29.84 in 1.2 mi WNW 11.5 mph 26.5 mph N/A Snow Light Snow
5:15 PM 31.8 °F 24.6 °F 25.5 °F 78% 29.84 in 10.0 mi NW 8.1 mph 17.3 mph N/A   Overcast
5:35 PM 30.2 °F 19.8 °F 27.1 °F 88% 29.85 in 0.2 mi NNW 13.8 mph 26.5 mph N/A Snow Light Snow
5:55 PM 31.8 °F 22.8 °F 24.8 °F 75% 29.85 in 10.0 mi NNW 11.5 mph 19.6 mph N/A   Overcast
6:15 PM 31.6 °F 22.1 °F 23.9 °F 73% 29.86 in 10.0 mi NW 12.7 mph 23.0 mph N/A   Overcast
6:35 PM 30.7 °F 22.0 °F 25.0 °F 79% 29.88 in 1.5 mi NW 10.4 mph 23.0 mph N/A Snow Light Snow
6:55 PM 29.1 °F 21.3 °F 26.6 °F 90% 29.88 in 0.2 mi NW 8.1 mph 21.9 mph N/A Snow Heavy Snow
7:15 PM 30.2 °F 22.6 °F 24.6 °F 80% 29.89 in 10.0 mi NW 8.1 mph - N/A   Overcast
7:35 PM 29.8 °F 23.9 °F 23.9 °F 79% 29.90 in 10.0 mi WNW 5.8 mph - N/A   Overcast
7:55 PM 29.8 °F 23.0 °F 24.4 °F 80% 29.91 in 10.0 mi WNW 6.9 mph - N/A   Overcast
8:15 PM 29.8 °F 19.8 °F 24.8 °F 81% 29.91 in 4.0 mi NW 12.7 mph 17.3 mph N/A Snow Light Snow
8:35 PM 28.6 °F 18.7 °F 24.8 °F 86% 29.93 in 3.0 mi NW 11.5 mph 16.1 mph N/A Snow Light Snow
8:55 PM 28.9 °F 18.2 °F 23.2 °F 79% 29.93 in 1.8 mi NW 13.8 mph 23.0 mph N/A Snow Light Snow
9:15 PM 27.5 °F 19.3 °F 25.2 °F 91% 29.95 in 0.2 mi NW 8.1 mph 17.3 mph N/A Snow Heavy Snow
9:35 PM 27.1 °F 16.4 °F 24.8 °F 91% 29.96 in 0.5 mi NNW 12.7 mph 18.4 mph 0.01 in Snow Snow
9:55 PM 26.6 °F 13.8 °F 24.1 °F 90% 29.96 in 0.5 mi NNW 17.3 mph 23.0 mph 0.02 in Snow Heavy Snow
10:15 PM 26.1 °F 15.6 °F 23.0 °F 88% 29.98 in 0.5 mi NW 11.5 mph 27.6 mph N/A Snow Snow
10:35 PM 26.6 °F 15.7 °F 22.6 °F 85% 29.98 in 7.0 mi NW 12.7 mph 16.1 mph N/A Snow Light Snow
10:55 PM 26.6 °F 16.2 °F 21.9 °F 82% 29.99 in 5.0 mi NW 11.5 mph 17.3 mph N/A Snow Light Snow
11:15 PM 25.9 °F 14.3 °F 21.7 °F 84% 29.99 in 0.8 mi NW 13.8 mph 20.7 mph N/A Snow Light Snow
11:35 PM 25.5 °F 16.2 °F 21.9 °F 86% 30.00 in 1.5 mi NW 9.2 mph 16.1 mph N/A Snow Light Snow
11:55 PM 25.5 °F 15.5 °F 21.0 °F 83% 30.01 in 5.0 mi NW 10.4 mph 20.7 mph N/A Snow Light Snow